Selinsgrove, PA

4:47 AM EDT on October 22, 2019 (GMT -0400)
Penn Valley

Weather History for KSEG - September, 2019

Change the Weather History Date:

Saturday, September 21, 2019

  Actual Average (WUND) Record (WUND)
Temperature  
Mean Temperature 64 °F -  
Max Temperature 82 °F - - (-1)
Min Temperature 46 °F - - (-1)
Degree Days  
Heating Degree Days 1    
Growing Degree Days 14 (Base 50)    
Moisture  
Dew Point 53 °F    
Average Humidity 85    
Maximum Humidity 100    
Minimum Humidity 39    
Precipitation  
Precipitation 0.00 in - - ()
Sea Level Pressure  
Sea Level Pressure 30.23 in    
Wind  
Wind Speed 0 mph (East)    
Max Wind Speed 6 mph    
Max Gust Speed -    
Visibility 5 miles    
Events Fog    
Averages and records for this station are not official NWS values.
T = Trace of Precipitation, MM = Missing Value Source: NWS Daily Summary

Daily Weather History Graph

Daily Weather History Graph

Search for Another Location

Airport or City:

Astronomy

Sep. 21, 2019 Rise Set
Actual Time 6:53 AM EDT 7:06 PM EDT
Civil Twilight 6:26 AM EDT 7:34 PM EDT
Nautical Twilight 5:54 AM EDT 8:06 PM EDT
Astronomical Twilight 5:21 AM EDT 8:38 PM EDT
Moon 11:40 PM EDT (9/21) 2:00 PM EDT (9/21)
Length of Visible Light 13h 07m
Length of Day
12h 12m
Waning Gibbous, 55% of the Moon is Illuminated
Sep 21
Waning Gibbous
Sep 21
Last Quarter
Sep 28
New
Oct 5
First Quarter
Oct 13
Full

Hourly Weather History & Observations

Time (EDT) Temp. Heat Index Dew Point Humidity Pressure Visibility Wind Dir Wind Speed Gust Speed Precip Events Conditions
12:53 AM 48.0 °F - 46.9 °F 96% 30.24 in 3.0 mi Calm Calm - N/A   Clear
1:36 AM 48.0 °F - 46.9 °F 96% 30.24 in 1.8 mi Calm Calm - N/A   Clear
1:47 AM 48.2 °F - 48.2 °F 100% 30.24 in 3.0 mi Calm Calm - N/A   Clear
1:53 AM 48.0 °F - 46.9 °F 96% 30.24 in 4.0 mi Calm Calm - N/A   Clear
2:41 AM 48.0 °F - 46.9 °F 96% 30.24 in 1.8 mi Calm Calm - N/A   Clear
2:53 AM 48.0 °F - 46.9 °F 96% 30.24 in 1.2 mi Calm Calm - N/A   Clear
2:59 AM 48.9 °F - 48.0 °F 97% 30.24 in 3.0 mi Calm Calm - N/A   Clear
3:16 AM 46.9 °F - 46.0 °F 97% 30.24 in 1.5 mi Calm Calm - N/A   Clear
3:29 AM 48.0 °F - 46.9 °F 96% 30.24 in 3.0 mi Calm Calm - N/A   Clear
3:53 AM 48.0 °F - 46.9 °F 96% 30.24 in 4.0 mi Calm Calm - N/A   Scattered Clouds
4:01 AM 48.9 °F - 48.0 °F 97% 30.24 in 5.0 mi Calm Calm - N/A   Mostly Cloudy
4:45 AM 50.0 °F - 48.9 °F 96% 30.24 in 1.5 mi Calm Calm - N/A   Overcast
4:47 AM 50.0 °F - 48.2 °F 94% 30.24 in 0.8 mi Calm Calm - N/A   Overcast
4:53 AM 50.0 °F - 50.0 °F 100% 30.24 in 0.2 mi Calm Calm - N/A Fog Fog
5:53 AM 50.0 °F - 50.0 °F 100% 30.26 in 0.2 mi NW 3.5 mph - N/A Fog Fog
6:53 AM 51.1 °F - 51.1 °F 100% 30.27 in 0.2 mi Calm Calm - N/A Fog Fog
7:53 AM 51.1 °F - 51.1 °F 100% 30.27 in 0.2 mi Calm Calm - N/A Fog Fog
8:53 AM 53.1 °F - 53.1 °F 100% 30.29 in 0.2 mi Calm Calm - N/A Fog Fog
9:53 AM 55.9 °F - 55.0 °F 97% 30.29 in 0.5 mi Calm Calm - N/A Fog Fog
9:58 AM 55.9 °F - 55.0 °F 97% 30.29 in 1.2 mi Calm Calm - N/A   Mostly Cloudy
10:03 AM 57.0 °F - 55.9 °F 96% 30.29 in 3.0 mi Calm Calm - N/A   Mostly Cloudy
10:14 AM 57.9 °F - 57.0 °F 97% 30.28 in 6.0 mi Calm Calm - N/A   Scattered Clouds
10:53 AM 66.0 °F - 57.9 °F 75% 30.27 in 10.0 mi Calm Calm - N/A   Clear
11:53 AM 72.0 °F - 57.9 °F 61% 30.25 in 10.0 mi Calm Calm - N/A   Clear
12:53 PM 75.9 °F - 55.9 °F 50% 30.23 in 10.0 mi Calm Calm - N/A   Clear
1:53 PM 80.1 °F 80.2 °F 55.9 °F 43% 30.20 in 10.0 mi SSE 5.8 mph - N/A   Clear
2:53 PM 82.0 °F 81.4 °F 55.0 °F 39% 30.19 in 10.0 mi Calm Calm - N/A   Clear
3:53 PM 82.0 °F 81.6 °F 55.9 °F 41% 30.17 in 10.0 mi East 3.5 mph - N/A   Clear
4:53 PM 82.9 °F 82.1 °F 55.9 °F 39% 30.16 in 10.0 mi Calm Calm - N/A   Clear
5:53 PM 80.1 °F 80.4 °F 57.0 °F 45% 30.16 in 10.0 mi Calm Calm - N/A   Clear
6:53 PM 72.0 °F - 61.0 °F 68% 30.16 in 10.0 mi Calm Calm - N/A   Clear
7:53 PM 64.0 °F - 61.0 °F 90% 30.17 in 10.0 mi Calm Calm - N/A   Clear
8:53 PM 61.0 °F - 59.0 °F 93% 30.18 in 10.0 mi Calm Calm - N/A   Clear
9:53 PM 60.1 °F - 59.0 °F 96% 30.20 in 10.0 mi Calm Calm - N/A   Clear
10:53 PM 57.0 °F - 57.0 °F 100% 30.19 in 10.0 mi Calm Calm - N/A   Clear
11:53 PM 59.0 °F - 57.9 °F 96% 30.20 in 7.0 mi Calm Calm - N/A   Clear